This is the latest recevied weather packets stored in our database for station/object KE4EST. If no packets are shown the sender has not sent any weather packets the latest 1 day(s).
| Time | Temp. | Humidity | Pressure | Rain* | Wind** | Luminosity | Snow |
|---|---|---|---|---|---|---|---|
| 1778053972 | 16.67° C | 76% | 1012.9 hPa | 0 mm | - | 0 W/m² | - |
| 1778053669 | 16.67° C | 76% | 1012.9 hPa | 0 mm | - | 0 W/m² | - |
| 1778052155 | 16.67° C | 74% | 1013.1 hPa | 0 mm | - | 0 W/m² | - |
| 1778051853 | 16.67° C | 74% | 1012.9 hPa | 0 mm | - | 0 W/m² | - |
| 1778051247 | 16.67° C | 74% | 1013 hPa | 0 mm | - | 0 W/m² | - |
| 1778050944 | 16.67° C | 74% | 1013.1 hPa | 0 mm | - | 0 W/m² | - |
| 1778050642 | 17.22° C | 72% | 1013.4 hPa | 0 mm | - | 0 W/m² | - |
| 1778050339 | 17.22° C | 72% | 1013.2 hPa | 0 mm | - | 0 W/m² | - |
| 1778049731 | 17.22° C | 71% | 1013.8 hPa | 0 mm | - | 0 W/m² | - |
| 1778048521 | 17.22° C | 71% | 1013.7 hPa | 0 mm | - | 0 W/m² | - |
| 1778048217 | 17.22° C | 70% | 1013.8 hPa | 0 mm | - | 0 W/m² | - |
| 1778047007 | 17.22° C | 68% | 1013.8 hPa | 0 mm | - | 0 W/m² | - |
| 1778046401 | 17.22° C | 68% | 1014.2 hPa | 0 mm | - | 0 W/m² | - |
| 1778045794 | 17.22° C | 66% | 1014.3 hPa | 0 mm | - | 0 W/m² | - |
| 1778045493 | 17.22° C | 68% | 1014.3 hPa | 0 mm | - | 0 W/m² | - |
| 1778045191 | 17.22° C | 68% | 1014.3 hPa | 0 mm | - | 0 W/m² | - |
| 1778044281 | 17.22° C | 71% | 1014.2 hPa | 0 mm | - | 0 W/m² | - |
| 1778043980 | 17.22° C | 70% | 1014.2 hPa | 0 mm | - | 0 W/m² | - |
| 1778043677 | 17.22° C | 69% | 1014.1 hPa | 0 mm | - | 0 W/m² | - |
| 1778043070 | 17.22° C | 68% | 1014.3 hPa | 0 mm | - | 0 W/m² | - |
| 1778042768 | 17.22° C | 67% | 1013.9 hPa | 0 mm | - | 0 W/m² | - |
| 1778042162 | 17.22° C | 67% | 1014.3 hPa | 0 mm | - | 0 W/m² | - |
| 1778041860 | 17.22° C | 67% | 1014.1 hPa | 0 mm | - | 0 W/m² | - |
| 1778041256 | 17.78° C | 65% | 1014.2 hPa | 0 mm | - | 0 W/m² | - |
| 1778040955 | 17.22° C | 66% | 1014.1 hPa | 0 mm | - | 0 W/m² | - |
* Rain latest hour (hover to see other rain measurements)
** Current wind speed in m/s (hover to see current wind gust speed)